Location: Gull Harbor
(47.1000°N, 122.9000°W)
Time: 05:48:51
(UTC-07:00)

Tiangong - Visible Passes

Search period start: 17 July 2025 00:00
Search period end: 27 July 2025 00:00
Orbit: 391 x 402 km, 41.5° (Epoch: 17 July)

Date Brightness Start Highest point End Pass type
(mag) Time Alt. Az. Time Alt. Az. Time Alt. Az.
17 Jul -0.5 22:18:20 10° SSW 22:20:36 17° SSE 22:20:49 17° SSE visible
18 Jul -0.7 22:58:45 10° SW 23:00:47 24° SSW 23:00:47 24° SSW visible
19 Jul -0.8 22:03:18 10° SW 22:05:59 24° SSE 22:07:55 15° ESE visible
19 Jul 0.3 23:39:45 10° WSW 23:40:23 14° WSW 23:40:23 14° WSW visible
20 Jul -1.2 22:44:06 10° WSW 22:47:01 30° S 22:47:18 29° SSE visible
21 Jul -1.0 21:48:30 10° SW 21:51:22 28° S 21:54:03 11° ESE visible
21 Jul 0.0 23:25:17 10° WSW 23:26:30 18° SW 23:26:30 18° SW visible
22 Jul -1.0 22:29:30 10° WSW 22:32:21 28° S 22:33:10 25° SSE visible
23 Jul -1.0 21:33:47 10° WSW 21:36:40 30° S 21:39:34 10° ESE visible
23 Jul 0.1 23:10:54 10° WSW 23:12:12 16° SW 23:12:12 16° SW visible
24 Jul -0.6 22:14:58 10° WSW 22:17:37 23° SSW 22:18:46 19° SSE visible
25 Jul 0.4 22:56:54 10° SW 22:57:44 12° SW 22:57:44 12° SW visible
26 Jul -0.1 22:00:33 10° WSW 22:02:44 17° SSW 22:04:16 13° SSE visible
